EST,Max TemperatureF,Mean TemperatureF,Min TemperatureF,Max Dew PointF,MeanDew PointF,Min DewpointF,Max Humidity, Mean Humidity, Min Humidity, Max Sea Level PressureIn, Mean Sea Level PressureIn, Min Sea Level PressureIn, Max VisibilityMiles, Mean VisibilityMiles, Min VisibilityMiles, Max Wind SpeedMPH, Mean Wind SpeedMPH, Max Gust SpeedMPH,PrecipitationIn, CloudCover, Events, WindDirDegrees
2013-2-1,32,22,11,27,8,-2,80,64,47,30.36,30.04,29.75,10,5,0,31,14,53,0.04,5,Fog-Snow,288
2013-2-2,30,20,10,25,20,1,85,63,40,30.33,30.04,29.93,10,4,0,18,7,24,0.17,7,Snow,248
2013-2-3,30,27,23,25,22,16,85,79,72,30.06,29.89,29.80,10,4,1,24,14,33,0.13,8,Snow,284
2013-2-4,43,32,21,23,18,12,77,60,43,30.12,30.00,29.91,10,10,9,22,12,32,0.00,6,,264
2013-2-5,43,40,37,31,29,22,76,61,45,29.93,29.88,29.84,10,10,10,18,10,28,0.00,7,,252
2013-2-6,48,42,35,30,25,20,75,55,34,30.23,30.12,29.94,10,10,10,16,6,25,0.00,3,,299
2013-2-7,43,39,35,33,28,21,89,69,48,30.22,30.13,29.99,10,10,10,18,9,29,T,4,Rain,147
2013-2-8,46,38,30,39,31,22,92,77,62,30.15,29.94,29.86,10,9,1,26,11,37,0.06,8,Rain,299
2013-2-9,45,35,24,21,15,9,75,50,24,30.34,30.27,30.13,10,10,10,21,7,30,0.00,2,,302
2013-2-10,54,43,31,37,18,10,70,45,20,30.31,30.19,30.02,10,10,6,23,11,41,0.11,3,Rain,153
2013-2-11,57,50,42,47,39,17,77,55,33,30.02,29.95,29.88,10,10,10,29,15,40,0.01,4,Rain,232
2013-2-12,50,42,34,22,19,15,61,44,26,30.10,30.01,29.91,10,10,10,22,8,33,0.00,0,,284
2013-2-13,43,38,32,38,30,18,89,63,36,29.86,29.72,29.56,10,7,0,20,8,30,0.13,8,Fog-Rain-Snow,278
2013-2-14,47,39,30,28,24,21,85,61,37,30.01,29.95,29.84,10,9,1,16,9,23,0.00,4,,273
2013-2-15,52,41,30,34,29,25,85,62,39,30.03,29.99,29.91,10,6,0,22,8,30,0.10,6,Rain-Snow,283
2013-2-16,30,25,19,27,18,10,84,73,62,29.98,29.90,29.83,10,7,0,20,8,28,0.12,7,Snow,309
2013-2-17,24,18,12,10,5,2,67,54,41,30.24,30.05,29.88,10,6,1,23,12,35,0.09,6,Snow,301
2013-2-18,51,34,17,26,16,1,54,45,36,30.31,30.20,30.00,10,10,10,22,9,35,0.00,0,,223
2013-2-19,47,39,30,35,24,10,76,55,33,29.96,29.87,29.78,10,10,5,30,15,41,0.05,5,Rain-Snow,239
2013-2-20,34,28,22,11,9,7,57,47,36,30.19,30.08,29.99,10,10,10,24,13,40,0.00,0,,292
2013-2-21,45,32,18,14,11,10,68,47,25,30.25,30.19,30.14,10,10,10,15,7,24,T,1,Rain,274
2013-2-22,47,41,34,35,31,25,85,78,70,30.19,30.07,30.01,10,10,6,24,9,36,0.18,6,Rain-Snow,142
2013-2-23,59,48,36,43,35,32,92,68,43,30.03,29.91,29.81,10,7,0,14,3,18,0.01,6,Fog-Rain,294
2013-2-24,46,40,33,33,23,16,70,51,31,30.07,29.94,29.83,10,10,10,22,9,28,0.00,2,,288
2013-2-25,47,36,25,23,20,19,81,59,37,30.12,30.06,30.01,10,10,10,22,6,32,0.00,0,,120
2013-2-26,42,37,31,37,28,17,92,73,54,30.01,29.74,29.55,10,8,4,25,10,43,0.33,8,Rain,118
2013-2-27,42,37,32,36,30,28,82,73,64,29.74,29.68,29.58,10,7,1,21,12,29,0.03,8,Snow,266
2013-2-28,33,31,29,27,24,20,85,77,69,29.87,29.74,29.66,10,6,2,23,13,35,0.04,8,Rain-Snow,284